Location: *
(51.8167°N, 12.5000°E)
Time: 21:30:47
(UTC+00:00)

SL-14 R/B - Pass Details

Date: 16 September 2019
Orbit: 517 x 556 km, 82.4° (Epoch: 14 October)

Event Time Altitude Azimuth Distance (km) Brightness Sun altitude
Rises 20:33:42 0° 347° (NNW) 2,737 7.8 -27.0°
Reaches altitude 10° 20:35:54 10° 344° (NNW) 1,832 6.8 -27.2°
Enters shadow 20:38:41 41° 329° (NNW) 799 4.5 -27.5°
